Overview Statistics Trail Chart Weather Telemetry Raw packets
 

This is the latest recevied weather packets stored in our database for station/object KJ5FA-9. If no packets are shown the sender has not sent any weather packets the latest 10 day(s).

<< 6 7 8 9 10 11 12 >>
Time Temp. Humidity Pressure Rain* Wind** Luminosity Snow
1788232774 28.89° C 63% 1017.1 hPa 0 mm - - -
1788231264 29.44° C 62% 1017 hPa 0 mm - - -
1788229776 30° C 61% 1016.9 hPa 0 mm - - -
1788228264 30° C 59% 1016.7 hPa 0 mm - - -
1788226764 30.56° C 57% 1016.6 hPa 0 mm - - -
1788225405 31.11° C 55% 1016.2 hPa 0 mm - - -
1788223764 32.22° C 53% 1016.2 hPa 0 mm - - -
1788222264 32.78° C 51% 1016 hPa 0 mm - - -
1788220764 33.33° C 50% 1016 hPa 0 mm - - -
1788219264 34.44° C 47% 1015.7 hPa 0 mm - - -
1788217767 35° C 44% 1015.5 hPa 0 mm - - -
1788216264 35.56° C 41% 1015.8 hPa 0 mm - - -
1788214763 36.11° C 40% 1016 hPa 0 mm - - -
1788213264 36.67° C 38% 1015.8 hPa 0 mm - - -
1788211764 36.67° C 37% 1016.1 hPa 0 mm - - -
1788210264 37.22° C 36% 1016.4 hPa 0 mm - - -
1788208765 37.22° C 35% 1016.6 hPa 0 mm - - -
1788207264 36.67° C 37% 1017.2 hPa 0 mm - - -
1788205785 36.67° C 35% 1017 hPa 0 mm - - -
1788204264 36.11° C 36% 1017.4 hPa 0 mm - - -
1788202766 35.56° C 41% 1017.8 hPa 0 mm - - -
1788201264 35.56° C 41% 1018 hPa 0 mm - - -
1788199764 35.56° C 41% 1018.3 hPa 0 mm - - -
1788198265 35.56° C 44% 1018.5 hPa 0 mm - - -
1788195263 33.89° C 49% 1019.4 hPa 0 mm - - -

* Rain latest hour (hover to see other rain measurements)
** Current wind speed in m/s (hover to see current wind gust speed)